Probability
0 0 0 0 0 0 0 0 0 0 0 0 0 0 0 0 0 0 0 0 0 0 0 0 0 0 0 0 0 0 0 0 0 0 0 0 0 0 0 0 0 0 0 0
0 0 0 0 0 0 0 0 0 0 0 0 0 0 0 0 0 0 0 0 0 0 0 0 0 0 0 0 0 0 0 0 0 0 0 0 0 0 0 0 0 0 0 0
0 0 0 0 0 0 0 0 0 0 0 0 0 0 0 0 0 0 0 0 0 0 0 0 0 0 0 0 0 0 0 0 0 0 0 0 0 0 0 0 0 0 0 0
0 0 0 0 0 0 0 0 0 0 0 0 0 0 0 0 0 0 0 0 0 0 0 0 0 0 1 0 0 0 0 0 0 0 0 0 0 0 0 0 0 0 0 0
0 0 0 0 0 0 0 0 0 0 0 0 0 0 0 0 0 0 0 0 0 0 0 1 1 0 0 0 0 0 0 0 0 0 0 0 0 0 0 0 0 0 0 0
0 0 0 0 0 0 0 0 0 0 0 0 0 0 0 0 0 0 0 0 0 0 1 2 1 1 0 0 0 0 0 0 0 0 0 0 0 0 0 0 0 0 0 0
0 0 0 0 0 0 0 0 0 0 0 0 0 0 0 0 0 0 0 0 0 0 1 2 1 1 1 0 0 0 0 0 0 0 0 0 0 0 0 0 0 0 0 0
0 0 0 0 0 0 0 0 0 0 0 0 0 0 0 0 0 0 0 0 0 0 1 1 1 0 0 0 0 0 0 0 0 0 0 0 0 0 0 0 0 0 0 0
0 0 0 0 0 0 0 0 0 0 0 0 0 0 0 0 0 0 0 0 0 0 0 0 0 0 0 0 0 0 0 0 0 0 0 0 0 0 0 0 0 0 0 0
0 0 0 0 0 0 0 0 0 0 0 0 0 0 0 0 0 0 0 0 0 0 0 0 0 0 0 0 0 0 0 0 0 0 0 0 0 0 0 0 0 0 0 0
0 0 0 0 0 0 0 0 0 0 0 0 0 0 0 0 0 0 0 0 0 0 0 0 0 0 0 0 0 0 0 0 0 0 0 0 0 0 0 0 0 0 0 0
0 0 0 0 0 0 0 0 0 0 0 0 0 0 0 0 0 0 0 0 0 0 0 0 0 0 0 1 1 0 0 0 0 0 0 0 0 0 0 0 0 0 0 0
0 0 0 0 0 0 0 0 0 0 0 0 0 0 0 0 0 0 0 0 0 0 0 0 0 0 0 1 2 1 0 0 0 0 0 0 0 0 0 0 0 0 0 0
0 0 0 0 0 0 0 0 0 0 0 0 0 0 0 0 0 0 0 0 0 0 0 0 0 0 0 1 1 1 0 0 0 0 0 0 0 0 0 0 0 0 0 0
0 0 0 0 0 0 0 0 0 0 0 0 0 0 0 0 0 0 0 0 0 0 0 0 0 0 0 0 0 0 0 0 0 0 0 0 0 0 0 0 0 0 0 0
0 0 0 0 0 0 0 0 0 0 0 0 0 0 0 0 0 0 0 0 0 0 0 0 0 0 0 0 0 0 0 0 0 0 0 0 0 0 0 0 0 0 0 0
0 0 0 0 0 0 0 0 0 0 0 0 0 0 0 0 0 0 0 0 0 0 0 0 0 0 0 0 0 0 0 0 0 0 0 0 0 0 0 0 0 0 0 0
0 0 0 0 0 0 0 0 0 0 0 0 0 0 0 0 0 0 0 0 0 0 0 0 0 0 0 0 0 0 0 0 0 0 0 0 0 0 0 0 0 0 0 0
0 0 0 0 0 0 0 0 0 0 0 0 0 0 0 0 0 0 0 0 0 0 0 0 0 0 0 0 0 0 0 0 0 0 0 0 0 0 0 0 0 0 0 0
0 0 0 0 0 0 0 0 0 0 0 0 0 0 0 0 0 0 0 0 0 0 0 0 0 0 0 0 0 0 0 0 0 0 0 0 0 0 0 0 0 0 0 0
0 0 0 0 0 0 0 0 0 0 0 0 0 0 0 0 0 0 0 0 0 0 0 0 0 0 0 0 0 0 0 0 0 0 0 0 0 0 0 0 0 0 0 0
0 0 0 0 0 0 0 0 0 0 0 0 0 0 0 0 0 0 0 0 0 0 0 0 0 0 0 0 0 0 0 0 0 0 0 0 0 0 0 0 0 0 0 0
0 0 0 0 0 0 0 0 0 0 0 0 0 0 0 0 0 0 0 0 0 0 0 0 0 0 0 0 0 0 0 0 0 0 0 0 0 0 0 0 0 0 0 0
0 0 0 0 0 0 0 0 0 0 0 0 0 0 0 0 0 0 0 0 0 0 0 0 0 0 0 0 0 0 0 0 0 0 0 0 0 0 0 0 0 0 0 0
0 0 0 0 0 0 0 0 0 0 0 0 0 0 0 0 0 0 0 0 0 0 0 0 0 0 0 0 0 0 0 0 0 0 0 0 0 0 0 0 0 0 0 0
0 0 0 0 0 0 0 0 0 0 0 0 0 0 0 0 0 0 0 0 0 0 0 0 0 0 0 0 0 0 0 0 0 0 0 0 0 0 0 0 0 0 0 0
Wind_Speed
1 3 1 5 6 5 5 5 3 2 2 5 6 4 2 2 4 5 4 4 5 4 2 4 5 5 5 4 4 4 4 3 2 2 2 1 1 1 1 1 1 0 0 1
3 2 6 5 5 5 4 5 3 1 3 5 6 4 2 3 3 4 5 5 5 4 3 3 4 4 4 4 3 3 3 3 2 1 1 1 1 1 1 1 1 1 1 1
4 5 4 5 4 5 3 5 6 5 3 4 5 4 3 2 3 5 4 4 4 5 4 3 3 3 3 3 3 3 3 3 2 2 2 2 3 2 2 2 2 2 2 2
2 3 2 3 2 5 3 6 8 7 5 1 3 2 3 1 4 4 4 3 4 4 3 3 3 3 3 2 2 3 3 2 2 2 2 2 1 0 2 2 2 3 3 2
2 2 3 2 3 5 4 4 6 5 5 3 3 4 4 1 1 1 2 3 3 3 4 3 2 2 2 2 3 3 3 3 2 2 2 2 1 1 1 1 2 3 3 3
2 1 3 3 2 4 4 5 5 5 5 1 2 4 3 4 5 4 3 3 4 4 4 4 3 3 3 3 3 3 4 2 1 1 1 1 0 1 1 2 2 3 3 3
2 1 0 2 3 2 4 6 4 3 3 3 2 3 6 5 6 7 7 5 4 4 4 4 4 3 3 3 3 2 3 2 1 1 1 1 1 1 1 2 2 2 2 3
2 2 3 2 5 4 3 7 7 5 4 2 1 3 4 2 5 5 6 5 4 4 4 4 4 3 3 2 2 2 2 1 1 1 2 2 1 0 1 1 1 2 2 3
4 4 3 4 4 7 5 3 5 6 2 1 1 1 3 2 5 5 6 5 5 4 4 4 3 3 2 1 1 1 1 1 1 2 2 2 2 1 1 2 1 1 2 2
5 3 3 2 3 1 6 6 5 5 4 2 1 3 6 8 8 7 6 6 5 4 4 4 3 2 1 1 1 1 1 1 1 2 2 2 2 2 2 2 3 3 3 3
3 3 1 0 3 5 3 3 4 4 4 6 3 7 7 12 11 11 8 7 7 6 5 4 3 2 2 2 2 2 2 2 2 2 2 2 2 2 2 3 3 3 3 4
3 5 2 5 4 5 5 5 7 5 3 4 4 7 3 10 9 9 8 7 6 6 5 4 3 2 2 2 1 2 2 2 1 1 2 2 2 3 3 4 4 4 4 4
4 5 3 4 5 2 2 3 5 6 5 4 4 6 1 6 7 8 9 8 6 6 5 3 2 2 2 1 1 1 1 1 1 2 2 3 3 3 3 4 4 4 4 4
5 4 6 8 8 5 4 4 5 6 4 4 6 6 4 7 9 8 8 8 7 6 5 4 3 2 1 1 1 1 0 0 1 2 3 3 3 3 3 4 4 4 4 4
5 3 3 5 5 4 5 6 6 6 7 7 7 9 12 14 13 12 10 8 7 6 5 5 4 2 2 1 1 1 0 1 1 2 2 2 2 3 3 4 4 4 5 5
3 2 1 2 2 2 3 6 6 6 6 5 5 7 7 8 7 8 9 10 9 7 6 5 4 3 2 2 1 1 1 1 2 2 1 2 3 3 4 4 4 5 5 5
2 3 2 2 3 2 4 7 7 6 6 9 9 9 8 9 12 14 12 11 10 8 7 6 5 4 3 3 2 2 1 1 2 1 1 2 3 3 4 5 5 5 5 5
5 4 3 1 2 4 9 5 5 6 5 6 6 8 14 14 13 10 9 11 10 9 8 6 5 4 3 2 2 2 1 2 1 1 2 2 2 3 4 4 5 5 4 4
6 7 4 3 2 6 7 3 4 5 3 4 7 8 9 8 7 1 5 8 9 9 7 6 5 4 3 3 2 2 1 1 1 1 2 3 2 3 3 4 4 4 4 5
4 5 5 4 3 6 8 4 2 6 3 3 7 11 11 11 6 7 7 7 8 7 6 6 4 4 3 2 2 3 1 0 1 3 3 3 2 2 3 4 4 3 3 4
3 3 4 4 4 8 7 2 4 4 8 4 8 12 13 10 8 7 9 8 8 7 6 6 5 4 3 2 3 2 1 3 4 3 2 3 3 3 3 2 3 3 4 5
7 6 5 5 4 9 4 4 6 7 3 5 7 9 9 6 6 8 9 9 8 7 6 6 5 3 3 3 3 2 3 4 3 2 2 3 3 3 3 2 3 3 3 4
5 8 7 9 8 5 3 5 4 5 5 4 6 6 8 8 7 8 8 8 7 7 6 5 5 4 2 2 3 3 4 3 2 1 2 3 3 3 3 3 3 3 3 3
3 2 3 1 3 2 1 2 2 4 5 5 7 8 8 8 8 8 7 7 6 6 5 4 5 4 3 3 3 4 4 3 2 2 3 3 3 4 4 3 3 3 3 4
4 1 2 1 2 1 2 2 3 4 5 6 6 6 8 9 8 7 7 7 6 5 4 4 5 4 4 3 3 4 3 3 2 3 3 3 3 3 4 4 3 4 4 5
4 5 6 7 8 6 5 3 4 6 6 7 6 5 5 7 8 7 7 6 6 5 4 4 4 4 4 3 3 4 3 3 3 3 3 3 3 3 3 4 5 6 7 11
Wind_Direction
58 72 177 200 180 168 157 147 164 222 168 94 99 96 42 35 100 116 119 128 130 144 139 119 118 125 123 122 123 127 123 122 111 92 90 75 24 330 337 296 272 289 312 32
61 240 225 196 175 158 154 142 154 127 113 106 104 84 52 60 111 147 145 147 146 129 100 104 111 111 124 129 132 141 145 142 139 123 137 153 166 265 277 307 314 284 264 282
175 226 206 169 158 154 178 171 165 151 100 85 92 36 17 9 65 92 107 130 132 137 140 138 118 110 109 115 135 149 160 149 144 111 81 54 41 19 6 347 322 299 281 276
234 245 153 145 164 154 189 188 165 150 114 108 115 119 307 349 60 85 99 102 119 129 124 123 115 111 117 120 111 116 128 131 128 115 104 106 100 305 266 280 294 302 298 289
224 157 133 169 198 159 184 156 141 129 115 78 58 113 273 297 95 119 128 127 131 132 126 121 118 131 112 100 101 97 96 93 98 114 130 124 128 240 291 315 324 320 317 305
227 199 161 180 184 150 137 82 67 57 74 81 213 140 238 223 191 172 152 146 142 129 121 111 93 84 66 61 73 79 87 78 70 94 114 125 179 293 333 331 326 320 318 313
340 330 279 145 96 28 93 94 65 30 29 251 196 144 234 218 181 167 164 162 155 131 123 110 99 86 72 65 63 70 80 61 21 30 11 339 271 255 265 285 296 305 313 309
139 266 236 184 161 166 161 135 148 166 193 261 53 198 257 195 159 147 144 144 135 128 129 126 128 126 117 109 88 84 84 51 8 8 348 353 11 1 287 280 283 275 273 278
167 239 249 194 163 139 133 160 163 132 142 122 278 308 335 88 130 136 137 132 137 139 134 130 121 118 122 118 101 108 102 43 1 359 6 13 15 15 327 315 322 299 294 301
160 190 244 193 89 93 149 151 109 121 148 172 226 225 215 195 180 165 159 154 153 146 136 131 129 132 123 110 83 68 74 61 20 17 20 30 8 354 344 349 338 326 313 314
148 145 269 154 185 190 150 134 125 128 154 151 195 252 215 190 180 170 170 165 160 156 148 144 143 139 120 83 69 63 53 45 32 28 24 20 3 1 4 360 343 332 326 322
156 129 196 248 252 187 163 174 150 152 198 167 170 256 258 174 168 161 160 160 159 153 149 143 135 118 100 87 69 63 64 62 36 40 42 24 9 9 6 348 338 343 339 330
138 118 90 349 333 325 187 187 156 137 126 152 165 252 349 140 149 160 157 157 155 147 139 129 119 114 113 116 103 88 77 76 41 51 44 24 10 2 352 339 337 343 341 337
122 124 162 189 214 208 210 218 172 136 150 187 205 198 187 170 166 170 166 163 157 154 151 145 140 140 139 133 132 106 38 68 66 60 48 25 359 351 339 339 338 336 337 338
116 155 212 227 229 197 202 208 198 183 182 183 205 189 198 189 179 174 168 161 156 158 160 161 158 156 149 135 95 74 51 41 70 66 40 3 348 351 346 341 335 334 337 338
110 152 144 299 276 235 232 220 202 202 192 183 169 210 203 173 155 159 166 165 166 169 168 165 162 159 163 166 162 101 44 30 83 73 19 349 354 351 343 332 333 335 333 330
119 129 114 270 300 15 268 229 203 199 193 168 190 210 158 158 174 178 176 173 174 172 169 167 168 172 179 182 167 158 165 79 73 55 4 350 348 343 332 334 341 332 326 328
138 122 131 165 37 239 246 254 193 183 209 196 185 175 170 176 181 179 172 171 174 172 169 170 169 170 178 173 162 146 103 78 63 20 339 330 335 330 331 338 333 323 320 322
151 139 130 136 201 272 288 263 171 162 235 207 175 165 160 129 99 157 191 171 172 170 165 166 168 165 162 166 162 127 95 74 50 315 304 298 304 318 329 329 320 315 321 320
93 110 125 140 178 234 248 261 156 103 270 245 164 155 146 130 154 218 191 163 157 154 154 155 155 146 149 177 153 128 151 182 262 267 275 284 289 301 305 302 302 308 314 312
111 99 145 170 212 258 254 245 101 146 234 215 166 158 159 171 188 174 155 156 156 154 156 153 148 150 171 174 141 147 196 239 250 261 278 299 296 290 285 295 300 309 315 321
170 165 182 159 192 251 244 140 169 205 203 152 156 162 163 153 129 137 150 154 155 155 157 154 151 166 186 170 150 177 232 247 253 264 288 297 296 295 312 306 304 310 314 321
189 188 183 183 206 238 208 183 187 156 143 150 155 158 146 138 146 150 155 157 160 160 161 160 159 171 199 193 171 198 239 245 245 262 282 290 296 298 296 291 296 306 311 309
275 143 133 194 262 254 190 142 138 147 147 149 146 144 144 150 153 153 155 158 159 163 165 161 158 171 211 226 216 220 233 228 217 244 271 283 288 296 299 293 284 287 296 297
237 138 118 233 264 6 313 205 160 131 121 119 124 137 147 145 152 158 162 167 170 170 172 167 171 188 215 225 236 246 238 211 218 243 265 276 273 277 287 284 271 271 265 265
215 183 176 216 216 187 216 211 158 140 146 146 138 135 145 152 158 160 168 173 172 173 171 173 184 199 217 221 237 253 243 212 210 242 262 264 266 272 277 286 299 287 279 290